Location: Harmony
(28.2000°N, 81.1500°W)
Time: 09:59:48
(UTC-04:00)

Daily predictions for brighter satellites

Satellite Brightness Start Highest point End
(mag) Time Altitude Azimuth Time Altitude Azimuth Time Altitude Azimuth
Lacrosse 5 rocket 1.4 20:11:04 10° NNW 20:14:41 51° NE 20:18:29 10° SE
USA 186 4.1 20:15:59 10° E 20:16:31 10° ENE 20:17:04 10° ENE
Cosmos 1633 2.6 20:14:44 10° S 20:18:19 83° W 20:21:58 10° N
Skynet4D Del rocket 4.3 20:13:05 10° W 20:20:51 80° S 20:27:36 10° E
H-2A R/B 3.1 20:17:46 10° SSE 20:21:23 44° ENE 20:24:59 10° N
ALOS 2.7 20:23:05 10° S 20:27:42 68° W 20:32:22 10° NNW
Palapa 6 Rocket 4.4 20:24:25 10° WSW 20:28:26 31° S 20:33:12 10° SE
Cosmos 2227 4.3 20:23:28 10° NNW 20:29:04 63° ENE 20:34:41 10° SSE
USA 267 4.1 20:24:02 10° ESE 20:29:49 34° NE 20:35:35 10° NNW
FENGYUN 3A 3.9 20:24:32 10° S 20:29:53 75° WSW 20:35:15 10° NNW
NOSS 2-3 (D) 4.3 20:25:28 10° SW 20:29:57 65° WNW 20:34:54 10° NNE
Cosmos 1954 Rocket 4.1 20:25:06 10° N 20:30:23 61° ENE 20:35:37 10° SSE
Cosmos 1975 Rocket 3.3 20:26:00 10° N 20:30:26 77° W 20:34:49 10° S
Cosmos 1812 4.2 20:29:42 10° NNW 20:33:21 41° W 20:36:59 10° SSW
ASTRO E2 3.2 20:32:06 10° SW 20:35:52 41° SSE 20:39:12 13° E
Cosmos 1553 Rocket 4.2 20:30:18 10° N 20:36:09 47° E 20:41:56 10° SSE
S3M 4.4 20:30:17 10° N 20:36:17 44° E 20:42:17 10° SSE
Resurs 01 Rocket 2.3 20:35:08 10° SE 20:39:08 34° ENE 20:43:10 10° N
Cosmos 2151 Rocket 3.5 20:35:26 10° S 20:39:49 83° E 20:44:12 10° N
Envisat 4.0 20:39:41 12° SE 20:43:31 27° ENE 20:47:46 10° NNE
Cosmos 1602 4.1 20:41:03 10° SSW 20:44:52 66° W 20:48:40 10° N
Abrixas 2.6 20:43:08 10° SW 20:45:41 60° NW 20:48:15 10° NE
DELTA 2 R/B (1) 3.6 20:41:53 10° WNW 20:47:30 85° NNE 20:51:49 17° ESE
GENESIS II 4.3 20:44:46 10° NNW 20:48:35 55° ENE 20:51:20 17° SE
Cosmos 2263 Rocket 3.1 20:44:01 10° N 20:49:01 31° ENE 20:52:22 18° ESE
Cosmos 2322 Rocket 3.2 20:43:44 10° SW 20:49:15 52° WNW 20:54:48 10° N
Lacrosse 5 3.5 20:46:08 10° WSW 20:50:49 37° NW 20:55:31 10° NNE
Cosmos 1536 Rocket 3.7 20:50:35 10° N 20:54:48 52° E 20:58:47 11° SSE
ATLAS 2AS CENTAUR R/B 3.3 20:48:14 10° SW 20:55:40 73° WNW 21:03:42 10° NNE
Atlas Centaur 2 3.0 20:48:02 10° WNW 20:56:39 90° NNE 21:02:22 20° ESE
SL-16 R/B 3.8 20:57:44 10° SW 21:02:57 38° WNW 21:08:13 10° N
Helios 1B rocket 3.6 21:05:41 10° NE 21:08:10 24° ENE 21:08:10 24° ENE
Meteor 1-11 Rocket 4.3 21:04:31 10° SSW 21:10:19 63° W 21:16:01 10° N
FALCON 9 R/B 3.5 21:06:41 10° S 21:19:39 - ENE 21:10:18 24° SE
Centaur AC-116 3.1 21:03:26 10° WSW 21:11:37 55° S 21:12:37 38° ESE
Cosmos 1110 Rocket 3.8 21:07:16 10° S 21:12:25 80° ESE 21:17:35 10° NNE
Cosmos 2322 3.6 21:10:40 10° SSW 21:16:18 78° ESE 21:21:58 10° NNE
GPS 2-05 Rocket1 3.4 21:13:25 10° WNW 21:16:43 45° NNE 21:17:20 39° NE
Cosmos 2360 Rocket 2.3 21:14:54 10° SSW 21:20:31 75° WNW 21:26:09 10° NNE
Cosmos 1331 Rocket 3.9 21:18:19 10° SSW 21:23:29 90° SE 21:28:43 10° NNE
SeaSat 1 2.5 21:20:21 10° NNE 21:25:17 79° WNW 21:30:11 10° SSW
Meteor 1-23 Rocket 4.1 21:23:50 10° N 21:29:21 64° E 21:31:39 35° SSE
COSMOS 2428 2.8 21:23:52 10° S 21:29:22 51° ESE 21:34:54 10° NNE
Cosmos 1850 Rocket 4.1 21:27:06 10° NNW 21:32:23 74° WSW 21:35:25 26° S
Cosmos 1241 Rocket 4.4 21:27:53 10° SSW 21:34:25 76° ESE 21:40:57 10° NNE
Resurs 1-3 4.3 21:31:04 15° S 21:34:27 51° W 21:38:44 10° NNW
Meteosat 1 Rocket2 3.6 21:31:57 10° W 21:36:40 88° N 21:38:59 41° E
Cosmos 220 Rocket 3.8 21:37:44 10° NNW 21:42:04 74° ENE 21:42:04 74° ENE
USA 186 3.9 21:45:51 21° SW 21:47:04 26° W 21:49:57 10° NW
Cosmos 2333 4.0 21:42:11 10° S 21:47:49 70° ESE 21:53:25 10° NNE
Cosmos 883 Rocket 4.4 21:42:21 10° N 21:48:31 87° W 21:51:30 33° S
Okean 1 Rocket 4.4 21:45:31 10° SSW 21:49:33 38° W 21:53:38 10° NNW
Cosmos 1939 Rocket 3.1 21:51:36 66° W 21:51:36 66° W 21:55:23 10° NNW
Cosmos 1025 Rocket 3.4 21:47:16 10° N 21:50:37 53° NNE 21:50:37 53° NNE
Cosmos 1607 3.9 21:46:16 10° NNW 21:52:46 88° ENE 21:54:25 53° SSE
Cosmos 1244 Rocket 4.3 21:53:50 45° S 21:55:51 78° E 22:02:00 10° N
Helios 1A 3.7 22:01:07 47° N 22:01:07 47° N 22:04:13 10° N
Tiangong 1 4.1 21:57:35 10° NW 21:58:00 13° NW 21:58:00 13° NW
USA 238 DEB 4.2 21:53:48 10° NNW 22:00:32 44° ENE 22:01:04 43° ENE
USA 238 4.2 21:53:54 10° NNW 22:00:38 43° ENE 22:01:09 43° ENE
Cosmos 1818 4.1 21:59:25 10° SW 22:04:44 58° WNW 22:10:05 10° NNE
ERS-1 Rocket 3.9 22:06:57 36° NNE 22:06:57 36° NNE 22:10:13 10° N
ATLAS 3B R/B 2.6 22:03:32 10° NNW 22:09:58 58° ENE 22:09:58 58° ENE
ARGOS 4.4 22:12:31 30° NNE 22:12:31 30° NNE 22:15:32 10° N
Cosmos 1238 Rocket 4.2 22:04:44 10° N 22:10:05 51° NE 22:10:05 51° NE
USA 267 3.7 22:10:52 43° S 22:12:32 53° SW 22:18:54 10° NW
Skynet4D Del rocket 4.3 22:06:46 10° W 22:13:29 50° SSW 22:13:29 50° SSW
Resurs 01 Rocket 4.4 22:13:10 10° SW 22:15:37 15° W 22:18:06 10° WNW
Cosmos 2263 Rocket 3.9 22:28:07 10° NW 22:32:43 26° WSW 22:34:06 23° SW
Aureole 3 Rocket 4.3 22:25:54 10° N 22:31:40 57° N 22:31:40 57° N
Cosmos 1844 Rocket 3.9 22:33:37 10° N 22:36:50 33° N 22:36:50 33° N
Cosmos 2278 Rocket 4.4 22:37:02 10° NNE 22:38:10 14° NNE 22:38:10 14° NNE
H-2A R/B 4.1 22:46:54 19° N 22:46:54 19° N 22:48:22 10° N
Atlas Centaur 2 3.5 22:38:33 10° W 22:45:00 44° SW 22:45:00 44° SW
Cosmos 2219 Rocket 3.6 22:50:03 33° NNW 22:50:03 33° NNW 22:53:23 10° N
NOSS 3-4 (A) 4.4 22:51:48 10° SW 22:57:43 43° WNW 23:03:45 10° NNE
NOSS 3-4 (C) 4.4 22:51:54 10° SW 22:57:49 44° WNW 23:03:52 10° NNE
Cosmos 2333 Rocket 4.5 23:29:06 20° NNW 23:29:06 20° NNW 23:31:13 10° N
